Вернуться в каталог

NOAA 19

АктивенПогодаSSO
NORAD 33591·PAYLOAD·🇺🇸 United States

Запущен Feb 6, 2009 с Vandenberg Space Force Base

Loading…

Ближайшие Пролёты (ближайшие 24 часа)

TLE

СвежийSource: Space-Track

Эпоха: Sep 14, 2026, 14:17 UTC

1 33591U 09005A   26257.59534950  .00000017  00000-0  32783-4 0  9992
2 33591  98.9444 328.5008 0014557 134.7351 225.5009 14.13485687907111

Отслеживайте NOAA 19 в реальном времени с AllMySat

Download on the App Store